Location: Helstorf
(52.5868°N, 9.5862°E)
Time: 13:21:55
(UTC+00:00)

Cosmos 1758 Rocket - Pass Details

Date: 15 May 2026
Orbit: 596 x 627 km, 82.5° (Epoch: 11 June)

Event Time Altitude Azimuth Distance (km) Brightness Sun altitude
Rises 20:14:11 0° 348° (NNW) 2,895 8.1 -8.1°
Reaches altitude 10° 20:16:25 10° 347° (NNW) 1,990 7.2 -8.3°
Maximum altitude 20:20:49 80° 261° (W) 637 3.7 -8.8°
Drops below altitude 10° 20:25:14 10° 175° (S) 1,991 5.7 -9.2°
Enters shadow 20:25:54 - 175° (S) 2,258 6.0 -9.3°
